User: anonymous   Login
Location: Dannhausen
(51.8650°N, 10.1026°E)
Time: 16:41:54
(UTC+00:00)
Language:

Cosmos 1607 - Orbit

View from above orbital plane
View from above orbital plane
View from above satellite
View from above satellite

Ground track
Ground track

The orbit data is extracted from the following two-line orbital elements,

1 15378U 84112A   20196.14983698 -.00000079  00000-0  90022-5 0  9991
2 15378  64.9902 263.3083 0050467 325.1489  34.6269 13.83566488805820
Epoch (UTC): 14 July 2020 03:35:45
Eccentricity: 0.0050467
inclination: 64.9902°
perigee height: 914 km
apogee height: 988 km
right ascension of ascending node: 263.3083°
argument of perigee: 325.1489°
revolutions per day: 13.83566488
mean anomaly at epoch: 34.6269°
orbit number at epoch: 80582

The dashed part of the orbit path shows where the satellite is in the earth's shadow,  

DLR